Wind_Speed
16 16 15 14 12 11 12 12 10 10 9 7 5 5 6 8 12 14 12 10 9 9 13 15 18 23 29 34 39 39 40 44 46 48 52 47 43 40 45 46 48 49 46 48 53 53 54 55 57
15 15 14 13 11 10 9 9 9 9 8 7 6 4 4 6 11 13 12 10 10 10 13 17 19 23 29 33 34 37 38 41 46 50 52 55 51 49 47 44 44 46 48 51 53 56 56 57 56
13 13 13 13 11 9 8 7 7 8 7 6 4 2 3 5 8 13 11 10 9 9 8 12 18 21 27 34 37 40 41 43 45 50 56 55 56 56 55 52 51 52 51 50 50 55 58 58 58
13 13 10 11 11 9 8 7 5 6 6 4 3 2 3 2 5 10 14 12 11 11 10 10 11 15 21 27 33 38 42 44 47 52 58 60 61 60 57 57 58 61 59 58 56 54 60 60 61
14 13 12 11 10 10 9 6 5 6 5 3 2 0 1 1 3 5 9 13 13 12 12 12 12 15 19 21 28 34 37 41 46 50 53 58 59 63 65 63 63 64 65 64 63 58 56 58 63
14 14 14 12 11 10 9 8 7 8 6 4 3 2 1 1 1 3 4 6 10 13 13 13 15 15 15 19 23 27 33 37 38 44 51 53 56 62 65 66 66 69 70 70 69 70 70 67 67
15 15 14 14 14 12 11 10 10 10 9 7 6 5 4 1 2 1 2 3 5 7 8 12 16 17 17 18 20 21 25 31 37 42 47 51 54 57 62 63 64 65 67 70 71 73 72 72 72
16 16 17 15 15 13 12 12 13 11 10 11 9 8 7 7 5 3 3 3 4 5 7 8 9 10 12 15 19 21 23 25 27 31 36 41 46 50 53 56 60 63 64 66 68 70 72 74 76
18 16 18 16 15 14 13 12 13 13 10 10 10 9 10 9 9 9 9 9 10 9 10 11 12 13 13 13 13 14 14 16 20 25 30 34 36 39 41 44 48 52 56 61 63 65 66 70 72
19 18 18 18 17 14 14 13 12 11 12 12 9 9 9 9 9 10 12 13 13 13 14 14 16 18 19 20 20 19 17 17 18 19 21 24 27 31 36 39 43 46 47 49 51 54 57 60 63
19 20 19 19 18 16 15 15 13 11 12 13 14 13 11 10 10 9 10 12 13 13 15 16 15 15 15 17 19 21 22 23 22 23 24 25 26 28 31 33 36 38 40 42 45 48 52 55 58
22 21 21 21 21 20 18 18 16 13 14 13 13 11 11 14 15 14 14 14 15 16 18 18 16 15 14 14 16 19 22 24 25 25 23 24 26 30 31 33 35 37 39 41 44 46 48 50 53
23 23 23 24 25 23 21 22 19 15 16 16 15 14 15 17 18 18 19 18 16 17 18 16 16 16 17 18 20 21 20 21 23 26 26 28 29 33 35 36 38 41 42 44 45 48 50 53 56
23 24 25 25 26 25 22 23 21 20 17 18 16 17 17 18 19 19 19 18 17 14 13 13 15 16 19 21 21 21 23 23 26 24 27 31 32 33 36 38 40 41 43 46 50 54 54 54 61
24 25 26 26 28 28 24 25 22 24 20 20 19 20 18 17 18 16 17 17 17 16 15 16 18 19 20 18 20 25 28 27 30 35 39 35 36 35 40 36 37 43 41 42 47 51 53 56 57
27 27 25 28 28 26 24 25 27 24 23 23 22 21 18 18 20 18 18 17 15 16 18 19 19 21 22 24 26 29 30 33 40 41 42 43 45 46 48 48 51 58 53 63 66 67 72 70 68
30 27 31 32 28 27 27 27 28 25 27 24 24 23 20 21 20 21 18 19 19 20 20 19 19 24 25 27 31 33 38 38 40 43 48 51 55 58 57 60 63 65 68 69 71 70 77 78 79
28 32 35 35 31 30 28 30 28 27 28 28 26 26 23 22 22 22 23 22 24 24 25 25 26 25 30 35 40 39 41 45 48 50 53 56 55 60 65 66 69 72 73 73 76 76 77 77 79
34 36 38 38 30 33 30 31 31 32 31 32 29 29 27 26 25 25 25 26 27 27 28 29 30 32 34 37 42 46 49 50 54 56 59 61 64 68 73 78 83 84 85 83 83 86 86 86 87
39 40 41 42 33 37 35 33 36 34 38 34 32 30 31 31 30 30 28 29 31 32 32 32 33 37 39 42 46 51 54 57 59 60 64 67 70 73 77 82 85 88 89 91 91 89 90 91 90
43 41 44 42 38 39 39 33 40 40 37 39 36 33 33 34 35 34 32 32 34 34 34 36 37 40 43 49 52 54 56 60 61 65 67 70 73 77 80 86 89 90 92 93 92 92 96 93 97
42 45 45 46 42 37 38 29 35 41 43 41 40 40 34 39 39 40 38 39 39 41 41 41 44 46 49 52 55 59 62 62 64 69 73 75 80 82 88 89 89 88 92 93 99 98 103 102 101
45 48 45 47 44 39 38 36 31 38 38 46 42 39 39 41 43 45 46 46 48 49 49 50 52 54 57 60 62 66 68 69 73 77 79 81 84 89 89 90 93 92 95 98 99 101 102 107 109
50 52 51 49 46 37 42 43 32 43 43 45 48 46 45 47 48 49 50 52 54 55 56 56 56 59 61 66 65 67 71 74 77 79 83 83 88 91 92 91 93 94 97 98 103 103 109 112 112
59 58 56 51 47 42 45 45 33 42 46 52 51 50 48 49 47 47 49 52 55 57 57 58 61 64 66 68 70 72 72 75 81 85 85 88 91 93 96 102 107 109 108 112 113 111 112 113 112
58 60 58 58 55 50 47 42 43 46 47 52 54 54 52 51 50 48 47 49 51 53 55 57 60 64 68 71 74 77 81 82 86 86 93 93 97 103 104 109 106 107 110 114 110 109 116 117 116
55 54 60 60 59 55 49 46 46 46 54 55 55 56 56 56 55 53 54 56 57 57 59 62 65 67 69 71 75 78 82 85 88 93 97 100 103 108 112 114 116 115 113 109 114 109 112 107 115
60 60 63 64 62 59 54 53 48 52 57 58 57 60 60 60 61 60 61 62 62 63 65 67 69 71 71 73 77 81 84 88 94 98 101 105 107 111 113 114 111 111 113 109 115 121 123 128 130
63 58 60 62 63 62 60 55 56 55 58 61 62 63 63 65 65 66 65 66 67 67 70 71 72 73 76 78 81 85 90 94 98 103 106 112 112 110 110 110 112 111 114 111 113 114 115 122 126
65 61 63 63 61 60 61 46 56 56 55 59 63 65 67 67 66 65 68 68 68 69 71 72 73 75 79 85 89 93 96 98 103 107 109 108 107 111 113 116 109 109 108 110 115 120 124 129 123
Wind_Direction
311 311 310 309 308 304 307 309 320 321 317 313 300 271 243 231 213 216 229 231 225 217 210 214 213 216 217 211 212 216 216 216 218 218 215 212 218 221 231 234 239 234 239 240 239 241 242 241 238
309 309 309 309 310 304 308 307 319 326 330 326 318 305 237 227 224 222 228 230 233 222 209 206 207 209 214 214 215 216 218 220 220 219 218 221 222 224 227 237 240 239 242 241 240 243 242 244 247
299 303 307 302 301 297 302 302 315 323 333 339 331 308 289 212 226 223 229 228 233 247 236 221 212 211 214 215 214 214 213 217 222 221 220 219 224 225 227 229 234 235 242 245 247 246 246 248 249
297 297 299 301 292 288 286 292 303 310 315 333 326 326 239 202 214 221 226 225 225 231 231 219 216 219 218 221 221 222 220 220 221 222 222 224 225 228 230 230 236 240 242 246 251 254 248 248 250
293 290 287 286 287 282 280 274 273 279 296 311 286 284 299 228 229 224 219 227 226 227 236 239 230 218 216 220 223 228 228 227 230 229 230 232 232 234 237 238 239 243 247 249 249 248 251 252 251
287 284 283 280 276 277 270 263 251 255 263 265 267 255 230 11 237 241 259 236 229 227 229 238 250 251 243 230 226 226 229 234 235 234 234 237 239 240 239 241 244 247 250 251 252 252 255 256 253
284 278 277 271 280 278 264 252 248 244 240 251 261 273 277 214 193 209 232 264 262 253 248 242 240 240 248 254 257 251 242 238 239 240 241 241 242 243 244 246 249 252 253 253 253 254 256 258 260
278 275 272 266 270 271 261 241 242 242 240 241 248 254 267 281 273 251 253 235 246 275 295 304 300 290 279 272 266 266 265 266 262 256 254 253 252 254 254 255 256 255 255 257 258 259 260 260 260
271 266 266 265 267 264 259 242 233 234 238 248 256 254 253 259 274 284 282 274 273 267 265 269 279 285 285 284 282 281 287 286 280 270 264 264 263 261 259 259 259 260 261 261 261 262 262 261 260
271 264 261 256 256 252 252 248 240 228 234 240 245 255 272 278 278 278 279 276 274 273 271 269 269 271 274 279 280 276 267 263 267 271 274 271 266 265 263 263 265 265 265 265 264 265 264 264 263
268 261 255 251 252 243 244 248 246 223 229 234 242 254 263 264 262 262 270 282 290 295 292 291 289 286 283 278 276 276 280 279 271 266 264 264 267 269 272 274 273 273 272 270 269 269 269 269 269
261 256 253 251 246 243 244 248 248 247 236 235 241 244 251 253 253 256 261 267 267 267 269 271 272 272 273 272 272 270 266 267 269 271 271 272 273 274 272 274 273 273 274 274 275 275 274 273 272
259 256 253 247 244 240 243 248 247 252 252 248 252 258 260 266 269 270 271 272 274 274 270 279 274 272 266 266 267 265 261 261 264 268 274 278 285 279 269 268 273 274 274 274 274 276 274 274 273
259 258 253 244 243 240 238 248 249 250 251 264 267 265 266 271 275 279 280 283 288 284 279 279 283 293 290 290 298 299 296 295 286 279 281 270 276 280 279 283 290 284 282 278 278 273 275 279 275
258 254 251 247 244 242 236 245 252 249 252 261 268 268 271 275 275 277 286 291 294 293 295 297 303 303 300 314 318 321 325 320 325 314 318 315 315 308 310 291 289 305 285 295 303 302 288 289 287
255 250 248 251 247 245 233 246 253 256 255 262 264 267 276 281 283 284 290 290 290 296 297 299 307 316 320 319 318 316 315 317 319 319 319 320 316 316 313 311 310 312 305 307 306 312 309 305 300
251 253 249 248 246 246 241 245 254 257 260 261 263 268 272 277 283 289 287 286 288 290 291 296 303 304 299 306 312 309 310 305 308 305 309 312 312 316 318 314 313 312 311 313 310 308 308 305 302
254 249 249 250 252 246 247 249 254 254 260 263 263 272 276 281 285 284 285 283 286 289 288 290 294 298 299 301 304 303 305 302 304 303 305 303 303 305 309 311 310 310 309 307 307 304 304 303 300
252 253 256 250 248 253 248 252 246 256 256 261 267 271 275 282 283 283 282 285 289 287 291 293 295 295 292 295 297 301 300 300 301 299 300 300 301 300 303 307 307 309 307 305 306 306 306 305 301
254 253 254 258 247 253 249 249 253 249 258 259 264 271 276 280 283 284 283 284 287 289 287 289 288 289 292 293 293 293 297 297 296 297 299 299 299 298 301 301 302 302 305 306 306 304 302 299 295
257 256 257 256 253 253 255 250 255 256 252 261 263 265 274 275 278 276 276 278 280 282 284 287 288 291 292 292 293 294 295 294 292 299 298 297 295 293 295 298 301 303 303 302 300 296 295 294 290
256 257 257 257 254 253 258 248 259 257 261 257 260 270 268 272 274 274 272 274 276 278 282 286 288 288 289 290 291 293 292 291 294 293 292 289 290 292 296 297 299 300 300 299 296 296 293 292 288
258 259 259 260 257 256 261 252 254 262 262 266 268 266 268 274 276 275 276 276 278 279 282 283 284 286 287 288 289 289 290 291 292 292 289 291 293 296 296 297 299 300 299 298 295 293 291 292 288
258 261 259 257 260 260 258 258 244 261 266 264 267 269 272 273 275 278 280 281 283 283 284 285 287 288 289 289 290 289 289 289 288 288 291 292 292 293 295 297 298 300 301 300 298 295 292 290 289
257 260 262 263 261 258 256 259 252 258 265 271 271 274 272 275 280 283 285 286 285 285 286 285 286 289 288 287 287 286 286 285 287 289 291 291 291 295 298 297 298 298 299 299 300 298 295 292 290
264 265 268 263 262 260 259 257 260 266 264 266 268 270 274 275 277 281 285 287 286 286 285 286 289 290 292 293 292 291 290 291 292 292 296 296 295 295 295 296 298 297 297 298 300 300 297 295 294
264 266 264 267 265 262 260 261 260 265 269 269 269 270 271 274 277 280 282 282 283 286 288 289 290 291 293 292 291 292 291 294 293 294 294 295 295 294 295 296 297 297 296 296 297 297 297 303 302
258 261 265 267 266 265 263 261 262 261 263 268 269 269 273 275 276 279 281 285 288 289 289 290 290 290 291 289 290 290 290 290 290 293 295 296 296 296 296 296 298 297 297 298 297 296 296 297 300
260 262 265 269 270 269 265 265 266 266 264 265 267 270 272 275 279 281 283 286 289 289 287 287 288 287 288 288 288 288 291 293 293 293 295 295 295 294 296 299 296 295 299 298 303 301 302 309 307
265 269 267 267 266 266 269 267 267 268 265 264 266 270 274 278 281 283 284 284 285 287 288 288 286 285 285 288 290 291 293 294 294 294 294 295 297 295 299 299 302 301 303 304 310 308 312 312 308
Height
10816 10815 10815 10815 10815 10815 10813 10812 10812 10812 10811 10810 10810 10809 10809 10809 10811 10813 10814 10814 10815 10817 10820 10823 10826 10829 10832 10834 10838 10842 10846 10848 10851 10853 10855 10857 10859 10862 10863 10865 10866 10868 10869 10872 10874 10876 10879 10881 10883
10815 10813 10814 10813 10813 10813 10812 10811 10811 10810 10809 10809 10809 10808 10808 10808 10809 10811 10812 10812 10813 10814 10816 10818 10821 10823 10825 10829 10834 10837 10840 10844 10847 10850 10851 10854 10855 10857 10859 10861 10861 10863 10863 10866 10869 10871 10872 10874 10876
10813 10812 10812 10812 10811 10811 10810 10810 10810 10809 10809 10808 10808 10807 10808 10808 10808 10808 10810 10811 10812 10813 10815 10817 10819 10821 10823 10824 10825 10828 10831 10836 10840 10843 10845 10847 10849 10851 10853 10856 10856 10858 10859 10861 10863 10865 10867 10869 10870
10812 10811 10811 10810 10809 10809 10809 10808 10808 10807 10807 10807 10806 10806 10806 10807 10807 10808 10808 10809 10810 10812 10813 10814 10817 10819 10821 10822 10825 10827 10829 10831 10832 10833 10837 10838 10841 10843 10846 10849 10850 10851 10852 10854 10855 10857 10858 10859 10861
10810 10809 10809 10808 10807 10807 10807 10807 10807 10806 10805 10805 10806 10805 10806 10806 10806 10807 10808 10809 10809 10810 10812 10813 10814 10815 10817 10819 10821 10823 10825 10828 10830 10832 10834 10836 10838 10840 10841 10843 10843 10844 10845 10846 10847 10848 10850 10850 10851
10807 10807 10807 10806 10805 10806 10807 10807 10806 10804 10804 10804 10805 10804 10805 10806 10807 10807 10807 10808 10809 10810 10811 10812 10813 10815 10816 10818 10818 10819 10820 10822 10824 10826 10828 10830 10831 10831 10832 10834 10837 10837 10838 10839 10839 10840 10839 10839 10840
10804 10804 10804 10804 10803 10803 10805 10805 10804 10803 10803 10803 10803 10804 10804 10805 10806 10806 10807 10808 10808 10808 10809 10810 10812 10813 10814 10815 10817 10819 10820 10820 10820 10820 10821 10822 10823 10823 10825 10826 10828 10829 10829 10830 10831 10831 10831 10832 10833
10801 10801 10801 10802 10801 10800 10801 10802 10801 10802 10802 10802 10802 10803 10803 10804 10805 10806 10807 10808 10808 10808 10809 10809 10811 10812 10813 10814 10815 10816 10818 10819 10821 10822 10822 10822 10822 10822 10823 10823 10823 10823 10822 10821 10821 10821 10821 10821 10821
10798 10799 10799 10799 10798 10798 10797 10798 10798 10800 10801 10800 10800 10801 10802 10803 10804 10804 10805 10806 10806 10807 10808 10808 10808 10808 10808 10809 10810 10811 10813 10814 10816 10816 10817 10816 10815 10813 10813 10813 10813 10812 10811 10811 10810 10810 10810 10809 10808
10795 10796 10796 10796 10795 10795 10795 10795 10796 10798 10798 10798 10799 10798 10798 10800 10801 10802 10802 10802 10803 10804 10804 10805 10805 10805 10806 10806 10805 10806 10805 10805 10804 10805 10806 10807 10807 10807 10806 10805 10804 10803 10802 10800 10800 10798 10797 10796 10795
10791 10791 10792 10792 10792 10792 10792 10793 10793 10794 10795 10795 10795 10797 10798 10798 10798 10798 10798 10799 10799 10799 10799 10800 10801 10801 10801 10801 10800 10799 10799 10799 10799 10800 10799 10799 10799 10799 10799 10798 10797 10795 10794 10793 10793 10790 10788 10787 10783
10786 10787 10787 10787 10788 10789 10789 10788 10790 10791 10792 10793 10793 10794 10794 10794 10795 10795 10796 10797 10797 10797 10796 10796 10795 10795 10794 10794 10794 10794 10794 10793 10792 10792 10792 10792 10792 10791 10790 10789 10788 10787 10786 10784 10782 10780 10779 10777 10774
10781 10783 10783 10782 10783 10784 10785 10785 10786 10787 10787 10789 10790 10791 10791 10791 10791 10792 10792 10792 10792 10791 10791 10791 10789 10788 10787 10787 10787 10787 10787 10787 10785 10785 10784 10782 10781 10779 10779 10778 10778 10776 10774 10772 10772 10769 10767 10764 10759
10776 10776 10777 10777 10777 10779 10781 10779 10781 10782 10783 10783 10786 10787 10786 10786 10786 10786 10786 10786 10785 10785 10785 10784 10783 10782 10781 10781 10779 10778 10777 10776 10776 10777 10777 10775 10774 10773 10772 10769 10767 10767 10765 10764 10762 10759 10756 10754 10750
10770 10770 10771 10772 10772 10773 10776 10774 10776 10775 10777 10779 10780 10779 10780 10780 10780 10781 10780 10780 10779 10779 10779 10779 10778 10777 10776 10775 10774 10771 10768 10767 10766 10766 10764 10763 10762 10761 10760 10759 10757 10757 10753 10752 10750 10746 10742 10739 10735
10763 10763 10766 10765 10766 10768 10770 10769 10768 10770 10772 10773 10773 10773 10773 10773 10772 10773 10774 10774 10774 10774 10773 10772 10771 10770 10769 10768 10766 10766 10764 10761 10759 10758 10756 10755 10754 10753 10752 10750 10749 10744 10741 10736 10734 10729 10727 10723 10718
10755 10759 10758 10758 10761 10761 10763 10763 10762 10765 10765 10767 10767 10767 10767 10766 10767 10767 10768 10768 10768 10767 10767 10766 10765 10764 10762 10762 10761 10759 10757 10755 10755 10752 10749 10746 10743 10739 10738 10735 10732 10730 10727 10722 10720 10716 10710 10705 10699
10752 10749 10750 10752 10754 10755 10757 10757 10757 10759 10759 10760 10761 10761 10761 10760 10761 10761 10761 10761 10761 10761 10760 10759 10758 10757 10756 10755 10752 10750 10749 10747 10743 10741 10739 10734 10730 10727 10725 10724 10721 10716 10713 10709 10704 10700 10697 10692 10685
10742 10742 10742 10743 10750 10748 10750 10750 10752 10751 10753 10752 10753 10753 10753 10754 10754 10755 10755 10755 10754 10753 10753 10752 10751 10750 10749 10747 10744 10742 10739 10737 10734 10731 10728 10723 10718 10715 10710 10705 10700 10697 10693 10690 10685 10679 10674 10669 10663
10732 10733 10733 10735 10744 10740 10743 10744 10744 10747 10743 10746 10745 10747 10746 10747 10747 10748 10749 10749 10748 10746 10746 10745 10743 10742 10741 10739 10736 10733 10730 10726 10723 10719 10715 10711 10707 10702 10697 10693 10687 10682 10675 10667 10662 10657 10652 10647 10639
10722 10726 10724 10727 10733 10733 10735 10741 10736 10738 10739 10735 10738 10740 10740 10739 10740 10741 10742 10742 10741 10739 10738 10737 10735 10734 10732 10729 10725 10722 10719 10716 10711 10708 10703 10698 10693 10687 10683 10678 10671 10665 10658 10651 10647 10639 10633 10627 10620
10714 10715 10716 10716 10722 10726 10729 10736 10730 10727 10729 10730 10729 10728 10734 10730 10732 10733 10734 10733 10732 10730 10729 10727 10726 10724 10720 10717 10713 10710 10707 10703 10699 10695 10690 10684 10678 10673 10668 10662 10656 10651 10641 10633 10625 10618 10609 10603 10593
10705 10703 10707 10707 10712 10719 10720 10724 10725 10718 10720 10714 10720 10721 10723 10721 10722 10722 10723 10723 10723 10721 10719 10716 10713 10710 10707 10704 10701 10698 10694 10690 10686 10681 10674 10668 10662 10656 10650 10644 10636 10628 10619 10611 10603 10595 10587 10579 10572
10694 10693 10694 10697 10701 10714 10708 10708 10724 10708 10708 10708 10705 10708 10710 10711 10712 10712 10711 10711 10711 10709 10707 10705 10702 10699 10696 10693 10689 10684 10680 10675 10671 10665 10659 10652 10643 10637 10631 10624 10616 10609 10600 10591 10581 10572 10562 10551 10540
10679 10679 10683 10689 10693 10700 10697 10701 10714 10705 10699 10693 10695 10696 10698 10698 10699 10700 10700 10698 10697 10696 10694 10691 10688 10686 10682 10678 10673 10668 10664 10659 10654 10648 10641 10634 10626 10619 10611 10602 10595 10587 10577 10567 10557 10545 10535 10523 10509
10669 10668 10672 10672 10678 10685 10688 10697 10697 10691 10690 10685 10683 10681 10683 10684 10687 10688 10687 10685 10683 10682 10680 10677 10674 10672 10668 10663 10659 10653 10648 10642 10636 10630 10622 10615 10606 10598 10588 10579 10570 10561 10552 10540 10529 10517 10505 10491 10478
10659 10659 10650 10657 10663 10670 10679 10681 10683 10683 10674 10673 10673 10670 10669 10669 10671 10672 10673 10671 10670 10668 10666 10662 10659 10656 10652 10647 10642 10637 10631 10624 10617 10609 10601 10594 10584 10574 10565 10556 10545 10533 10523 10513 10499 10486 10474 10459 10444
10643 10643 10640 10641 10646 10652 10664 10668 10671 10667 10661 10660 10660 10656 10655 10655 10656 10657 10656 10656 10655 10653 10649 10646 10643 10639 10636 10631 10625 10618 10612 10605 10598 10589 10579 10570 10559 10550 10541 10530 10519 10506 10494 10482 10469 10456 10442 10426 10412
10625 10632 10629 10626 10631 10634 10645 10655 10654 10655 10652 10648 10644 10643 10641 10640 10641 10642 10642 10640 10639 10636 10633 10630 10626 10622 10617 10612 10605 10599 10592 10584 10576 10567 10558 10548 10537 10526 10515 10503 10491 10480 10468 10452 10437 10423 10407 10390 10373
10610 10616 10613 10610 10614 10621 10626 10650 10636 10637 10637 10633 10630 10629 10627 10628 10629 10628 10626 10624 10623 10619 10616 10612 10608 10604 10600 10592 10585 10578 10570 10562 10554 10545 10534 10523 10511 10499 10486 10475 10462 10449 10435 10421 10405 10389 10371 10354 10335